Location: *
(37.5724°S, 58.0067°E)
Time: 11:01:49
(UTC+00:00)

USA 229 DEB - Pass Details

Date: 04 December 2021
Orbit: 943 x 1269 km, 63.4° (Epoch: 14 January)

Event Time Altitude Azimuth Distance (km) Brightness Sun altitude
Rises 16:55:54 0° 325° (NW) 4,213 6.7 -16.3°
Reaches altitude 10° 16:58:44 10° 324° (NW) 3,238 6.1 -16.7°
Maximum altitude 17:06:37 78° 237° (WSW) 1,253 4.1 -17.8°
Drops below altitude 10° 17:14:08 10° 150° (SSE) 3,089 6.3 -18.7°
Sets 17:16:47 0° 148° (SSE) 4,009 7.0 -19.1°
